DW9493 Weather Reports


Display with metric or nautical units.
time (UTC)temp
F
wind
direction
speed
MPH
gust
MPH
rain 1hr
in
rain 24hr
in
rain mn
in
humidity
%
barometer
mb
20260906024650 69 238 2.0 6.0 0.00 0.00 0.00 40 1026.3
20260906023650 69 252 2.0 6.0 0.00 0.00 0.00 41 1026.1
20260906022650 68 279 1.0 5.0 0.00 0.00 0.00 43 1026.0
20260906021648 69 307 3.0 7.0 0.00 0.00 0.00 41 1025.9
20260906021135 70 319 2.0 5.0 0.00 0.00 0.00 39 1025.8
20260906015644 71 302 1.0 6.0 0.00 0.00 0.00 38 1025.9
20260906014644 71 312 1.0 4.0 0.00 0.00 0.00 38 1025.9
20260906013644 72 297 1.0 4.0 0.00 0.00 0.00 37 1025.8
20260906012645 73 268 2.0 5.0 0.00 0.00 0.00 36 1025.9
20260906011645 73 304 2.0 5.0 0.00 0.00 0.00 35 1025.8
20260906010643 74 277 2.0 7.0 0.00 0.00 0.00 34 1025.9
20260906005642 76 257 1.0 4.0 0.00 0.00 0.00 31 1025.8
20260906004642 76 36 0.0 4.0 0.00 0.00 0.00 30 1025.6
20260906004602 76 357 0.0 3.0 0.00 0.00 0.00 31 1025.6
20260906002642 77 36 0.0 4.0 0.00 0.00 0.00 30 1025.5
20260906001640 77 89 0.0 5.0 0.00 0.00 0.00 30 1025.5
20260906001117 78 58 1.0 4.0 0.00 0.00 0.00 29 1025.5
20260905235641 78 52 1.0 6.0 0.00 0.00 0.00 28 1025.4
20260905235138 79 106 1.0 6.0 0.00 0.00 0.00 28 1025.4
20260905233641 79 25 1.0 5.0 0.00 0.00 0.00 29 1025.2
20260905232641 79 143 1.0 5.0 0.00 0.00 0.00 29 1025.2
20260905231640 79 44 1.0 5.0 0.00 0.00 0.00 28 1025.2
20260905230639 79 322 1.0 4.0 0.00 0.00 0.00 28 1025.2
20260905225611 80 53 2.0 6.0 0.00 0.00 0.00 27 1025.2
20260905224610 80 98 1.0 6.0 0.00 0.00 0.00 28 1025.2
20260905223612 79 311 3.0 6.0 0.00 0.00 0.00 28 1025.2
20260905223055 80 316 1.0 6.0 0.00 0.00 0.00 26 1025.4
20260905222047 80 39 1.0 8.0 0.00 0.00 0.00 27 1025.5
20260905220610 80 72 3.0 9.0 0.00 0.00 0.00 27 1025.5
20260905215541 80 51 2.0 6.0 0.00 0.00 0.00 28 1025.5
20260905214542 80 68 3.0 10.0 0.00 0.00 0.00 28 1025.8
20260905213542 80 320 3.0 7.0 0.00 0.00 0.00 27 1025.8
20260905212537 80 57 3.0 14.0 0.00 0.00 0.00 28 1025.9
20260905211538 80 309 3.0 11.0 0.00 0.00 0.00 26 1026.0
20260905210540 81 51 2.0 12.0 0.00 0.00 0.00 26 1026.0
20260905205523 80 359 3.0 10.0 0.00 0.00 0.00 27 1026.3
20260905205432 81 44 0.0 6.0 0.00 0.00 0.00 27 1026.3
20260905203516 79 30 2.0 6.0 0.00 0.00 0.00 28 1026.3
20260905202516 78 349 1.0 5.0 0.00 0.00 0.00 28 1026.4
20260905201516 79 307 2.0 7.0 0.00 0.00 0.00 28 1026.4
20260905200950 79 91 2.0 9.0 0.00 0.00 0.00 29 1026.4
20260905195514 79 338 2.0 12.0 0.00 0.00 0.00 28 1026.5
20260905194516 79 342 4.0 12.0 0.00 0.00 0.00 29 1026.5
20260905193455 80 9 2.0 7.0 0.00 0.00 0.00 28 1026.6
20260905192926 79 355 3.0 11.0 0.00 0.00 0.00 29 1026.6
20260905191938 79 40 2.0 9.0 0.00 0.00 0.00 29 1026.5
20260905190452 80 103 2.0 9.0 0.00 0.00 0.00 29 1026.6
20260905185451 78 354 2.0 8.0 0.00 0.00 0.00 30 1026.6
20260905184451 78 96 3.0 9.0 0.00 0.00 0.00 30 1026.6
20260905183450 77 47 2.0 8.0 0.00 0.00 0.00 29 1026.8
20260905182449 77 43 2.0 8.0 0.00 0.00 0.00 29 1026.8
20260905181446 78 61 1.0 6.0 0.00 0.00 0.00 29 1026.8
20260905180446 78 103 2.0 11.0 0.00 0.00 0.00 29 1026.8
20260905175445 79 92 2.0 7.0 0.00 0.00 0.00 29 1026.9
20260905174445 80 346 2.0 11.0 0.00 0.00 0.00 29 1026.9
20260905173445 80 119 1.0 6.0 0.00 0.00 0.00 29 1026.9
20260905172446 78 131 2.0 8.0 0.00 0.00 0.00 29 1026.9
20260905171446 79 118 1.0 7.0 0.00 0.00 0.00 29 1026.9
20260905170925 78 113 0.0 2.0 0.00 0.00 0.00 28 1026.9
20260905165446 78 56 0.0 1.0 0.00 0.00 0.00 28 1026.8
20260905164447 77 341 1.0 4.0 0.00 0.00 0.00 27 1026.8
20260905163445 77 311 1.0 8.0 0.00 0.00 0.00 29 1026.8
20260905162444 77 316 3.0 10.0 0.00 0.00 0.00 29 1026.8
20260905161444 77 272 2.0 8.0 0.00 0.00 0.00 29 1026.6
20260905160444 76 272 2.0 7.0 0.00 0.00 0.00 28 1026.8
20260905155444 76 298 4.0 10.0 0.00 0.00 0.00 29 1026.8
20260905154444 76 266 4.0 14.0 0.00 0.00 0.00 30 1026.6
20260905153928 75 277 5.0 15.0 0.00 0.00 0.00 31 1026.8
20260905152444 74 264 5.0 10.0 0.00 0.00 0.00 32 1026.6
20260905151442 73 325 5.0 12.0 0.00 0.00 0.00 32 1026.5
20260905150442 72 305 6.0 10.0 0.00 0.00 0.00 33 1026.6
20260905145442 71 325 6.0 11.0 0.00 0.00 0.00 35 1026.8
20260905144442 70 325 7.0 12.0 0.00 0.00 0.00 37 1026.8
20260905143929 68 316 6.0 11.0 0.00 0.00 0.00 39 1026.8
20260905142924 67 318 6.0 13.0 0.00 0.00 0.00 40 1026.8
20260905141442 66 335 5.0 11.0 0.00 0.00 0.00 41 1026.8
20260905140440 64 321 3.0 7.0 0.00 0.00 0.00 44 1026.6
20260905135440 63 318 1.0 7.0 0.00 0.00 0.00 45 1026.6
20260905134440 64 269 4.0 9.0 0.00 0.00 0.00 45 1026.5
20260905133439 64 319 6.0 12.0 0.00 0.00 0.00 44 1026.5
20260905132913 63 299 6.0 11.0 0.00 0.00 0.00 45 1026.4
20260905131438 61 312 2.0 8.0 0.00 0.00 0.00 47 1026.3
20260905130439 61 321 3.0 9.0 0.00 0.00 0.00 48 1026.3
20260905125900 58 314 0.0 1.0 0.00 0.00 0.00 52 1026.1
20260905124412 58 205 0.0 1.0 0.00 0.00 0.00 52 1026.0
20260905123409 58 238 0.0 2.0 0.00 0.00 0.00 53 1025.9
20260905122753 57 205 0.0 1.0 0.00 0.00 0.00 55 1025.9
20260905122420 58 229 0.0 1.0 0.00 0.00 0.00 54 1025.9
20260905120410 58 315 0.0 5.0 0.00 0.00 0.00 54 1025.8
20260905115341 58 208 0.0 1.0 0.00 0.00 0.00 54 1025.8
20260905114340 57 239 0.0 1.0 0.00 0.00 0.00 56 1025.8
20260905113340 58 207 1.0 7.0 0.00 0.00 0.00 54 1025.8
20260905112341 59 316 3.0 8.0 0.00 0.00 0.00 54 1025.8
20260905111341 58 242 0.0 2.0 0.00 0.00 0.00 56 1025.8
20260905110340 58 264 0.0 2.0 0.00 0.00 0.00 56 1025.6
20260905105801 58 248 0.0 2.0 0.00 0.00 0.00 57 1025.8
20260905104303 57 321 0.0 2.0 0.00 0.00 0.00 58 1025.6
20260905103248 56 248 0.0 3.0 0.00 0.00 0.00 59 1025.5
20260905102247 55 312 0.0 3.0 0.00 0.00 0.00 64 1025.5
20260905101246 54 300 0.0 2.0 0.00 0.00 0.00 65 1025.5
20260905100726 54 316 0.0 2.0 0.00 0.00 0.00 65 1025.6
20260905095246 55 203 0.0 1.0 0.00 0.00 0.00 61 1025.6
20260905094246 55 195 0.0 1.0 0.00 0.00 0.00 61 1025.5
20260905093246 56 321 0.0 2.0 0.00 0.00 0.00 59 1025.4
20260905092245 56 270 0.0 1.0 0.00 0.00 0.00 60 1025.5
20260905091216 55 262 0.0 1.0 0.00 0.00 0.00 61 1025.4
20260905090216 55 325 0.0 2.0 0.00 0.00 0.00 63 1025.4
20260905085216 55 311 0.0 2.0 0.00 0.00 0.00 61 1025.4
20260905084216 56 259 0.0 0.0 0.00 0.00 0.00 62 1025.4
20260905083216 56 253 0.0 0.0 0.00 0.00 0.00 62 1025.5
20260905082217 57 253 0.0 1.0 0.00 0.00 0.00 59 1025.5
20260905081158 57 253 0.0 1.0 0.00 0.00 0.00 59 1025.4
20260905080151 56 262 0.0 1.0 0.00 0.00 0.00 60 1025.4
20260905075630 56 259 0.0 0.0 0.00 0.00 0.00 63 1025.5
20260905074154 56 259 0.0 1.0 0.00 0.00 0.00 59 1025.5
20260905073147 56 271 0.0 1.0 0.00 0.00 0.00 60 1025.5
20260905072149 57 281 0.0 1.0 0.00 0.00 0.00 61 1025.5
20260905071148 58 281 0.0 0.0 0.00 0.00 0.00 55 1025.5
20260905070625 60 281 0.0 1.0 0.00 0.00 0.00 54 1025.5
20260905065118 59 262 0.0 1.0 0.00 0.00 0.00 55 1025.2
20260905064118 59 302 0.0 2.0 0.00 0.00 0.00 55 1025.2
20260905063118 60 218 0.0 1.0 0.00 0.00 0.00 54 1025.2
20260905062603 60 194 0.0 1.0 0.00 0.00 0.00 51 1025.4
20260905061118 60 260 0.0 1.0 0.00 0.00 0.00 51 1025.2
20260905060117 59 295 0.0 1.0 0.00 0.00 0.00 55 1025.2
20260905055114 60 295 0.0 0.0 0.00 0.00 0.00 53 1025.2
20260905054115 60 295 0.0 0.0 0.00 0.00 0.00 53 1025.2
20260905053114 61 295 0.0 0.0 0.00 0.00 0.00 52 1025.2
20260905052114 61 295 0.0 1.0 0.00 0.00 0.00 51 1025.1
20260905051114 61 242 0.0 1.0 0.00 0.00 0.00 52 1025.2
20260905050111 61 242 0.0 0.0 0.00 0.00 0.00 52 1025.2
20260905045110 63 242 0.0 0.0 0.00 0.00 0.00 48 1025.2
20260905044112 65 242 0.0 1.0 0.00 0.00 0.00 47 1025.1
20260905043059 65 302 0.0 2.0 0.00 0.00 0.00 45 1025.1
20260905042058 66 312 0.0 3.0 0.00 0.00 0.00 43 1025.1
20260905041059 68 330 0.0 1.0 0.00 0.00 0.00 42 1025.1
20260905040058 69 250 1.0 3.0 0.00 0.00 0.00 40 1025.1
20260905035543 69 248 1.0 4.0 0.00 0.00 0.00 40 1025.2
20260905034055 70 250 3.0 5.0 0.00 0.00 0.00 40 1025.1
20260905033054 71 236 4.0 8.0 0.00 0.00 0.00 40 1025.1
20260905032054 71 242 5.0 8.0 0.00 0.00 0.00 38 1025.0
20260905031054 72 270 3.0 5.0 0.00 0.00 0.00 35 1025.1
20260905030543 71 239 3.0 6.0 0.00 0.00 0.00 36 1025.1